Time,TemperatureF,DewpointF,PressureIn,WindDirection,WindDirectionDegrees,WindSpeedMPH,WindSpeedGustMPH,Humidity,HourlyPrecipIn,Conditions,Clouds,dailyrainin,SoftwareType,DateUTC
2013-06-16 00:02:00,65.0,56.0,-100.00,WSW,255,0.0,3.0,72,0.00,,,-99.99,,2013-06-16 04:02:00,
2013-06-16 00:12:00,65.0,56.0,-100.00,WSW,255,0.0,3.0,72,0.00,,,-99.99,,2013-06-16 04:12:00,
2013-06-16 00:23:00,66.0,57.0,-100.00,South,190,1.0,4.0,71,0.00,,,-99.99,,2013-06-16 04:23:00,
2013-06-16 00:34:00,66.0,56.0,-100.00,South,170,1.0,2.0,70,0.00,,,-99.99,,2013-06-16 04:34:00,
2013-06-16 00:42:00,66.0,56.0,-100.00,South,170,1.0,2.0,70,0.00,,,-99.99,,2013-06-16 04:42:00,
2013-06-16 00:53:00,66.0,55.0,-100.00,West,260,1.0,4.0,67,0.00,,,-99.99,,2013-06-16 04:53:00,
2013-06-16 01:02:00,67.0,55.0,-100.00,SSE,165,1.0,4.0,65,0.00,,,-99.99,,2013-06-16 05:02:00,
2013-06-16 01:12:00,67.0,55.0,-100.00,SSE,160,1.0,4.0,66,0.00,,,-99.99,,2013-06-16 05:12:00,
2013-06-16 01:22:00,67.0,56.0,-100.00,West,270,1.0,4.0,67,0.00,,,-99.99,,2013-06-16 05:22:00,
2013-06-16 01:34:00,67.0,55.0,-100.00,South,180,1.0,3.0,66,0.00,,,-99.99,,2013-06-16 05:34:00,
2013-06-16 01:43:00,67.0,56.0,-100.00,South,180,1.0,3.0,67,0.00,,,-99.99,,2013-06-16 05:43:00,
2013-06-16 01:52:00,66.0,56.0,-100.00,South,190,1.0,2.0,69,0.00,,,-99.99,,2013-06-16 05:52:00,
2013-06-16 02:01:00,66.0,56.0,-100.00,SE,140,2.0,4.0,69,0.00,,,-99.99,,2013-06-16 06:01:00,
2013-06-16 02:11:00,66.0,56.0,-100.00,SSW,210,1.0,4.0,68,0.00,,,-99.99,,2013-06-16 06:11:00,
2013-06-16 02:22:00,67.0,56.0,-100.00,SSE,160,2.0,5.0,68,0.00,,,-99.99,,2013-06-16 06:22:00,
2013-06-16 02:33:00,67.0,56.0,-100.00,South,170,1.0,6.0,67,0.00,,,-99.99,,2013-06-16 06:33:00,
2013-06-16 02:43:00,67.0,56.0,-100.00,SE,125,1.0,6.0,67,0.00,,,-99.99,,2013-06-16 06:43:00,
2013-06-16 02:52:00,67.0,56.0,-100.00,South,170,2.0,6.0,66,0.00,,,-99.99,,2013-06-16 06:52:00,
2013-06-16 03:01:00,67.0,56.0,-100.00,South,180,1.0,6.0,66,0.00,,,-99.99,,2013-06-16 07:01:00,
2013-06-16 03:12:00,67.0,56.0,-100.00,South,175,2.0,6.0,65,0.00,,,-99.99,,2013-06-16 07:12:00,
2013-06-16 03:22:00,68.0,56.0,-100.00,SSW,195,2.0,7.0,66,0.00,,,-99.99,,2013-06-16 07:22:00,
2013-06-16 03:33:00,68.0,56.0,-100.00,East,95,2.0,5.0,65,0.00,,,-99.99,,2013-06-16 07:33:00,
2013-06-16 03:43:00,68.0,56.0,-100.00,SSE,165,2.0,7.0,65,0.00,,,-99.99,,2013-06-16 07:43:00,
2013-06-16 03:53:00,68.0,56.0,-100.00,SSE,165,3.0,7.0,65,0.00,,,-99.99,,2013-06-16 07:53:00,
2013-06-16 04:02:00,68.0,56.0,-100.00,SSE,155,3.0,7.0,65,0.00,,,-99.99,,2013-06-16 08:02:00,
2013-06-16 04:12:00,68.0,56.0,-100.00,South,175,4.0,9.0,66,0.00,,,-99.99,,2013-06-16 08:12:00,
2013-06-16 04:22:00,68.0,56.0,-100.00,SSE,150,4.0,9.0,67,0.00,,,-99.99,,2013-06-16 08:22:00,
2013-06-16 04:33:00,68.0,56.0,-100.00,South,185,5.0,10.0,67,0.00,,,-99.99,,2013-06-16 08:33:00,
2013-06-16 04:43:00,68.0,57.0,-100.00,SSW,200,4.0,12.0,67,0.00,,,-99.99,,2013-06-16 08:43:00,
2013-06-16 04:54:00,68.0,57.0,-100.00,South,185,4.0,11.0,67,0.00,,,-99.99,,2013-06-16 08:54:00,
2013-06-16 05:02:00,68.0,57.0,-100.00,South,180,4.0,10.0,67,0.00,,,-99.99,,2013-06-16 09:02:00,
2013-06-16 05:11:00,68.0,57.0,-100.00,SSE,155,3.0,10.0,68,0.00,,,-99.99,,2013-06-16 09:11:00,
2013-06-16 05:22:00,68.0,57.0,-100.00,South,185,5.0,11.0,68,0.00,,,-99.99,,2013-06-16 09:22:00,
2013-06-16 05:33:00,67.0,57.0,-100.00,WSW,245,4.0,10.0,69,0.00,,,-99.99,,2013-06-16 09:33:00,
2013-06-16 05:43:00,67.0,57.0,-100.00,WSW,245,4.0,9.0,70,0.00,,,-99.99,,2013-06-16 09:43:00,
2013-06-16 06:02:00,66.0,57.0,-100.00,SE,140,5.0,11.0,72,0.00,,,-99.99,,2013-06-16 10:02:00,
2013-06-16 06:12:00,66.0,57.0,-100.00,South,180,6.0,11.0,72,0.00,,,-99.99,,2013-06-16 10:12:00,
2013-06-16 06:22:00,66.0,57.0,-100.00,South,180,4.0,12.0,72,0.00,,,-99.99,,2013-06-16 10:22:00,
2013-06-16 06:33:00,66.0,57.0,-100.00,South,180,4.0,7.0,73,0.00,,,-99.99,,2013-06-16 10:33:00,
2013-06-16 06:43:00,66.0,57.0,-100.00,South,180,4.0,7.0,73,0.00,,,-99.99,,2013-06-16 10:43:00,
2013-06-16 06:53:00,66.0,58.0,-100.00,South,185,3.0,6.0,74,0.00,,,-99.99,,2013-06-16 10:53:00,
2013-06-16 07:02:00,66.0,58.0,-100.00,SSE,165,3.0,7.0,76,0.55,,,-99.99,,2013-06-16 11:02:00,
2013-06-16 07:12:00,65.0,59.0,-100.00,SSW,210,3.0,10.0,80,0.00,,,-99.99,,2013-06-16 11:12:00,
2013-06-16 07:22:00,65.0,59.0,-100.00,South,175,7.0,13.0,81,0.00,,,-99.99,,2013-06-16 11:22:00,
2013-06-16 07:34:00,64.0,59.0,-100.00,SSW,210,2.0,13.0,82,0.00,,,-99.99,,2013-06-16 11:34:00,
2013-06-16 07:43:00,65.0,60.0,-100.00,SSW,210,2.0,8.0,83,0.00,,,-99.99,,2013-06-16 11:43:00,
2013-06-16 07:52:00,65.0,60.0,-100.00,SW,215,2.0,9.0,82,0.00,,,-99.99,,2013-06-16 11:52:00,
2013-06-16 08:02:00,66.0,60.0,-100.00,West,275,4.0,11.0,82,0.00,,,-99.99,,2013-06-16 12:02:00,
2013-06-16 08:12:00,66.0,61.0,-100.00,WSW,240,4.0,9.0,83,0.00,,,-99.99,,2013-06-16 12:12:00,
2013-06-16 08:22:00,67.0,61.0,-100.00,WSW,245,6.0,17.0,82,0.00,,,-99.99,,2013-06-16 12:22:00,
2013-06-16 08:33:00,67.0,62.0,-100.00,WSW,240,5.0,12.0,81,0.00,,,-99.99,,2013-06-16 12:33:00,
2013-06-16 08:43:00,68.0,62.0,-100.00,West,260,4.0,12.0,81,0.00,,,-99.99,,2013-06-16 12:43:00,
2013-06-16 08:53:00,68.0,62.0,-100.00,WSW,250,6.0,17.0,79,0.00,,,-99.99,,2013-06-16 12:53:00,
2013-06-16 09:01:00,68.0,62.0,-100.00,SW,225,6.0,14.0,79,0.00,,,-99.99,,2013-06-16 13:01:00,
2013-06-16 09:12:00,69.0,62.0,-100.00,SW,230,7.0,17.0,77,0.00,,,-99.99,,2013-06-16 13:12:00,
2013-06-16 09:22:00,70.0,62.0,-100.00,West,280,10.0,17.0,76,0.00,,,-99.99,,2013-06-16 13:22:00,
2013-06-16 09:34:00,70.0,62.0,-100.00,West,275,7.0,15.0,76,0.00,,,-99.99,,2013-06-16 13:34:00,
2013-06-16 09:43:00,70.0,62.0,-100.00,WSW,250,8.0,12.0,75,0.00,,,-99.99,,2013-06-16 13:43:00,
2013-06-16 09:53:00,71.0,62.0,-100.00,WSW,250,7.0,14.0,74,0.00,,,-99.99,,2013-06-16 13:53:00,
2013-06-16 10:02:00,71.0,62.0,-100.00,West,275,7.0,18.0,74,0.00,,,-99.99,,2013-06-16 14:02:00,
2013-06-16 10:12:00,71.0,62.0,-100.00,West,265,11.0,16.0,72,0.00,,,-99.99,,2013-06-16 14:12:00,
2013-06-16 10:22:00,71.0,62.0,-100.00,West,265,11.0,19.0,71,0.00,,,-99.99,,2013-06-16 14:22:00,
2013-06-16 10:34:00,72.0,62.0,-100.00,West,270,10.0,17.0,71,0.00,,,-99.99,,2013-06-16 14:34:00,
2013-06-16 10:43:00,72.0,62.0,-100.00,West,270,10.0,22.0,71,0.00,,,-99.99,,2013-06-16 14:43:00,
2013-06-16 10:52:00,71.0,62.0,-100.00,West,275,11.0,25.0,72,0.00,,,-99.99,,2013-06-16 14:52:00,
2013-06-16 11:02:00,71.0,62.0,-100.00,West,280,14.0,23.0,72,0.00,,,-99.99,,2013-06-16 15:02:00,
2013-06-16 11:12:00,71.0,62.0,-100.00,WNW,285,12.0,25.0,72,0.00,,,-99.99,,2013-06-16 15:12:00,
2013-06-16 11:23:00,71.0,62.0,-100.00,WNW,295,11.0,19.0,72,0.00,,,-99.99,,2013-06-16 15:23:00,
2013-06-16 11:34:00,71.0,62.0,-100.00,West,280,14.0,25.0,72,0.00,,,-99.99,,2013-06-16 15:34:00,
2013-06-16 11:43:00,71.0,62.0,-100.00,West,265,11.0,22.0,72,0.00,,,-99.99,,2013-06-16 15:43:00,
2013-06-16 11:52:00,71.0,62.0,-100.00,West,260,12.0,21.0,73,0.00,,,-99.99,,2013-06-16 15:52:00,
2013-06-16 12:02:00,71.0,62.0,-100.00,West,270,11.0,19.0,73,0.00,,,-99.99,,2013-06-16 16:02:00,
2013-06-16 12:12:00,71.0,62.0,-100.00,West,270,10.0,22.0,74,0.00,,,-99.99,,2013-06-16 16:12:00,
2013-06-16 12:23:00,71.0,62.0,-100.00,West,275,16.0,25.0,73,0.00,,,-99.99,,2013-06-16 16:23:00,
2013-06-16 12:33:00,71.0,62.0,-100.00,West,275,11.0,25.0,73,0.00,,,-99.99,,2013-06-16 16:33:00,
2013-06-16 12:43:00,71.0,62.0,-100.00,West,275,16.0,26.0,74,0.00,,,-99.99,,2013-06-16 16:43:00,
2013-06-16 12:53:00,71.0,62.0,-100.00,West,265,15.0,19.0,74,0.00,,,-99.99,,2013-06-16 16:53:00,
2013-06-16 13:02:00,71.0,62.0,-100.00,WSW,255,11.0,21.0,74,0.00,,,-99.99,,2013-06-16 17:02:00,
2013-06-16 13:12:00,72.0,63.0,-100.00,West,275,14.0,23.0,73,0.00,,,-99.99,,2013-06-16 17:12:00,
2013-06-16 13:22:00,72.0,63.0,-100.00,West,275,12.0,24.0,73,0.00,,,-99.99,,2013-06-16 17:22:00,
2013-06-16 13:34:00,73.0,63.0,-100.00,West,260,11.0,22.0,72,0.00,,,-99.99,,2013-06-16 17:34:00,
2013-06-16 13:43:00,72.0,63.0,-100.00,WNW,290,9.0,20.0,71,0.00,,,-99.99,,2013-06-16 17:43:00,
2013-06-16 13:53:00,72.0,62.0,-100.00,West,275,10.0,22.0,70,0.00,,,-99.99,,2013-06-16 17:53:00,
2013-06-16 14:02:00,73.0,62.0,-100.00,West,270,9.0,22.0,69,0.00,,,-99.99,,2013-06-16 18:02:00,
2013-06-16 14:12:00,73.0,63.0,-100.00,West,270,8.0,15.0,69,0.00,,,-99.99,,2013-06-16 18:12:00,
2013-06-16 14:22:00,73.0,62.0,-100.00,West,270,9.0,17.0,68,0.00,,,-99.99,,2013-06-16 18:22:00,
2013-06-16 14:33:00,73.0,62.0,-100.00,West,280,9.0,20.0,69,0.00,,,-99.99,,2013-06-16 18:33:00,
2013-06-16 14:43:00,73.0,62.0,-100.00,WSW,255,9.0,20.0,67,0.00,,,-99.99,,2013-06-16 18:43:00,
2013-06-16 14:52:00,73.0,62.0,-100.00,WNW,295,9.0,19.0,68,0.00,,,-99.99,,2013-06-16 18:52:00,
2013-06-16 15:01:00,74.0,62.0,-100.00,West,275,9.0,19.0,66,0.00,,,-99.99,,2013-06-16 19:01:00,
2013-06-16 15:11:00,74.0,62.0,-100.00,West,275,11.0,18.0,66,0.00,,,-99.99,,2013-06-16 19:11:00,
2013-06-16 15:22:00,75.0,61.0,-100.00,West,270,14.0,21.0,61,0.00,,,-99.99,,2013-06-16 19:22:00,
2013-06-16 15:34:00,75.0,62.0,-100.00,West,270,10.0,16.0,62,0.00,,,-99.99,,2013-06-16 19:34:00,
2013-06-16 15:43:00,75.0,62.0,-100.00,West,270,7.0,20.0,63,0.00,,,-99.99,,2013-06-16 19:43:00,
2013-06-16 15:53:00,75.0,62.0,-100.00,West,270,9.0,22.0,63,0.00,,,-99.99,,2013-06-16 19:53:00,
2013-06-16 16:02:00,74.0,62.0,-100.00,WNW,285,10.0,16.0,65,0.00,,,-99.99,,2013-06-16 20:02:00,
2013-06-16 16:12:00,76.0,63.0,-100.00,WSW,255,6.0,12.0,63,0.00,,,-99.99,,2013-06-16 20:12:00,
2013-06-16 16:22:00,75.0,62.0,-100.00,West,275,8.0,14.0,64,0.00,,,-99.99,,2013-06-16 20:22:00,
2013-06-16 16:33:00,75.0,62.0,-100.00,West,280,7.0,12.0,65,0.00,,,-99.99,,2013-06-16 20:33:00,
2013-06-16 16:42:00,77.0,63.0,-100.00,West,265,6.0,16.0,62,0.00,,,-99.99,,2013-06-16 20:42:00,
2013-06-16 16:53:00,76.0,62.0,-100.00,WNW,295,9.0,16.0,61,0.00,,,-99.99,,2013-06-16 20:53:00,
2013-06-16 17:02:00,76.0,62.0,-100.00,West,265,10.0,19.0,61,0.00,,,-99.99,,2013-06-16 21:02:00,
2013-06-16 17:11:00,77.0,62.0,-100.00,West,270,9.0,16.0,59,0.00,,,-99.99,,2013-06-16 21:11:00,
2013-06-16 17:22:00,78.0,62.0,-100.00,WNW,290,6.0,14.0,57,0.00,,,-99.99,,2013-06-16 21:22:00,
2013-06-16 17:33:00,78.0,62.0,-100.00,West,275,12.0,22.0,57,0.00,,,-99.99,,2013-06-16 21:33:00,
2013-06-16 17:42:00,79.0,62.0,-100.00,WNW,285,6.0,14.0,56,0.00,,,-99.99,,2013-06-16 21:42:00,
2013-06-16 17:53:00,78.0,62.0,-100.00,West,260,9.0,17.0,57,0.00,,,-99.99,,2013-06-16 21:53:00,
2013-06-16 18:01:00,79.0,63.0,-100.00,WNW,290,7.0,13.0,57,0.00,,,-99.99,,2013-06-16 22:01:00,
2013-06-16 18:12:00,77.0,62.0,-100.00,West,265,11.0,19.0,59,0.00,,,-99.99,,2013-06-16 22:12:00,
2013-06-16 18:22:00,77.0,62.0,-100.00,West,270,12.0,17.0,59,0.00,,,-99.99,,2013-06-16 22:22:00,
2013-06-16 18:32:00,78.0,62.0,-100.00,West,275,7.0,18.0,59,0.00,,,-99.99,,2013-06-16 22:32:00,
2013-06-16 18:42:00,77.0,62.0,-100.00,West,275,7.0,12.0,59,0.00,,,-99.99,,2013-06-16 22:42:00,
2013-06-16 18:52:00,77.0,63.0,-100.00,West,280,6.0,13.0,60,0.00,,,-99.99,,2013-06-16 22:52:00,
2013-06-16 19:02:00,77.0,62.0,-100.00,West,275,10.0,16.0,60,0.00,,,-99.99,,2013-06-16 23:02:00,
2013-06-16 19:11:00,78.0,62.0,-100.00,West,260,4.0,11.0,59,0.00,,,-99.99,,2013-06-16 23:11:00,
2013-06-16 19:22:00,78.0,62.0,-100.00,WNW,285,4.0,11.0,59,0.00,,,-99.99,,2013-06-16 23:22:00,
2013-06-16 19:32:00,77.0,63.0,-100.00,WNW,290,3.0,9.0,61,0.00,,,-99.99,,2013-06-16 23:32:00,
2013-06-16 19:42:00,77.0,63.0,-100.00,WSW,245,3.0,9.0,61,0.00,,,-99.99,,2013-06-16 23:42:00,
2013-06-16 19:52:00,77.0,62.0,-100.00,West,260,6.0,11.0,61,0.00,,,-99.99,,2013-06-16 23:52:00,
2013-06-16 20:02:00,76.0,63.0,-100.00,West,275,2.0,10.0,63,0.00,,,-99.99,,2013-06-17 00:02:00,
2013-06-16 20:11:00,76.0,63.0,-100.00,WNW,290,2.0,9.0,63,0.00,,,-99.99,,2013-06-17 00:11:00,
2013-06-16 20:22:00,75.0,62.0,-100.00,West,260,4.0,7.0,63,0.00,,,-99.99,,2013-06-17 00:22:00,
2013-06-16 20:32:00,75.0,63.0,-100.00,West,265,4.0,6.0,65,0.00,,,-99.99,,2013-06-17 00:32:00,
2013-06-16 20:43:00,74.0,63.0,-100.00,West,260,3.0,6.0,67,0.00,,,-99.99,,2013-06-17 00:43:00,
2013-06-16 20:52:00,74.0,63.0,-100.00,WSW,255,2.0,6.0,69,0.00,,,-99.99,,2013-06-17 00:52:00,
2013-06-16 21:02:00,73.0,63.0,-100.00,SW,225,1.0,5.0,71,0.00,,,-99.99,,2013-06-17 01:02:00,
2013-06-16 21:12:00,72.0,63.0,-100.00,SW,225,1.0,4.0,73,0.00,,,-99.99,,2013-06-17 01:12:00,
2013-06-16 21:22:00,71.0,63.0,-100.00,SW,225,1.0,4.0,76,0.00,,,-99.99,,2013-06-17 01:22:00,
2013-06-16 21:32:00,70.0,63.0,-100.00,WSW,255,1.0,5.0,77,0.00,,,-99.99,,2013-06-17 01:32:00,
2013-06-16 21:43:00,69.0,63.0,-100.00,SSW,200,1.0,3.0,78,0.00,,,-99.99,,2013-06-17 01:43:00,
2013-06-16 21:53:00,69.0,63.0,-100.00,South,185,1.0,4.0,79,0.00,,,-99.99,,2013-06-17 01:53:00,
2013-06-16 22:02:00,69.0,62.0,-100.00,South,190,1.0,6.0,80,0.00,,,-99.99,,2013-06-17 02:02:00,
2013-06-16 22:12:00,68.0,62.0,-100.00,South,185,1.0,3.0,81,0.00,,,-99.99,,2013-06-17 02:12:00,
2013-06-16 22:22:00,68.0,62.0,-100.00,SSW,195,1.0,4.0,81,0.00,,,-99.99,,2013-06-17 02:22:00,
2013-06-16 22:34:00,68.0,62.0,-100.00,South,185,1.0,4.0,81,0.00,,,-99.99,,2013-06-17 02:34:00,
2013-06-16 22:43:00,68.0,62.0,-100.00,WSW,245,1.0,4.0,81,0.00,,,-99.99,,2013-06-17 02:43:00,
2013-06-16 22:53:00,68.0,62.0,-100.00,SSW,200,1.0,5.0,80,0.00,,,-99.99,,2013-06-17 02:53:00,
2013-06-16 23:02:00,69.0,62.0,-100.00,South,185,2.0,4.0,79,0.00,,,-99.99,,2013-06-17 03:02:00,
2013-06-16 23:12:00,68.0,62.0,-100.00,SSW,205,1.0,4.0,80,0.00,,,-99.99,,2013-06-17 03:12:00,
2013-06-16 23:22:00,68.0,63.0,-100.00,SSW,195,1.0,3.0,82,0.00,,,-99.99,,2013-06-17 03:22:00,
2013-06-16 23:33:00,68.0,63.0,-100.00,SSW,195,1.0,3.0,82,0.00,,,-99.99,,2013-06-17 03:33:00,
2013-06-16 23:44:00,68.0,63.0,-100.00,West,260,1.0,3.0,83,0.00,,,-99.99,,2013-06-17 03:44:00,
2013-06-16 23:53:00,69.0,64.0,-100.00,WSW,245,0.0,4.0,83,0.00,,,-99.99,,2013-06-17 03:53:00,